GSAT0218 (GALILEO 22)

Last updated on Wed Sep 09 2026 00:02:49 GMT+0000 (Coordinated Universal Time)

1 43058U 17079D 26251.45546140 .00000008 00000+0 00000+0 0 9995 2 43058 55.0536 219.2114 0005119 283.4748 76.4253 1.70473917 54430
UTC large
Height (km)
Speed (km/s)
/
Latitude / Longitude
Inclination (degrees)
Orbital Period (minutes)
Azimuth
Elevation
Range (km)
Doppler Factor

Next 0 passes for location: London (51.5072 / 0.1276)

No passes found over London.
GSAT0218 (GALILEO 22)